Location: Breckenridge
(39.4820°N, 106.0380°W)
Time: 00:02:23
(UTC-06:00)

ISS - Pass Details

Date: 22 March 2019
Orbit: 408 x 410 km, 51.6° (Epoch: 22 April)

Event Time Altitude Azimuth Distance (km) Brightness Sun altitude
Rises 21:50:49 0° 273° (W) 2,323 1.0 -29.1°
Reaches altitude 10° 21:53:22 10° 294° (WNW) 1,464 -0.1 -29.5°
Enters shadow 21:54:23 15° 310° (NW) 1,223 -0.6 -29.7°
